Year,Month,Day,Hour,Minute,Value (Times are PST for insolation in W/m^2)
2013,11,04,00,00,0.00
2013,11,04,00,01,0.00
2013,11,04,00,02,0.00
2013,11,04,00,03,0.00
2013,11,04,00,04,0.00
2013,11,04,00,05,0.00
2013,11,04,00,06,0.00
2013,11,04,00,07,0.00
2013,11,04,00,08,0.00
2013,11,04,00,09,0.00
2013,11,04,00,10,0.00
2013,11,04,00,11,0.00
2013,11,04,00,12,0.00
2013,11,04,00,13,0.00
2013,11,04,00,14,0.00
2013,11,04,00,15,0.00
2013,11,04,00,16,0.00
2013,11,04,00,17,0.00
2013,11,04,00,18,0.00
2013,11,04,00,19,0.00
2013,11,04,00,20,0.00
2013,11,04,00,21,0.00
2013,11,04,00,22,0.00
2013,11,04,00,23,0.00
2013,11,04,00,24,0.00
2013,11,04,00,25,0.00
2013,11,04,00,26,0.00
2013,11,04,00,27,0.00
2013,11,04,00,28,0.00
2013,11,04,00,29,0.00
2013,11,04,00,30,0.00
2013,11,04,00,31,0.00
2013,11,04,00,32,0.00
2013,11,04,00,33,0.00
2013,11,04,00,34,0.00
2013,11,04,00,35,0.00
2013,11,04,00,36,0.00
2013,11,04,00,37,0.00
2013,11,04,00,38,0.00
2013,11,04,00,39,0.00
2013,11,04,00,40,0.00
2013,11,04,00,41,0.00
2013,11,04,00,42,0.00
2013,11,04,00,43,0.00
2013,11,04,00,44,0.00
2013,11,04,00,45,0.00
2013,11,04,00,46,0.00
2013,11,04,00,47,0.00
2013,11,04,00,48,0.00
2013,11,04,00,49,0.00
2013,11,04,00,50,0.00
2013,11,04,00,51,0.00
2013,11,04,00,52,0.00
2013,11,04,00,53,0.00
2013,11,04,00,54,0.00
2013,11,04,00,55,0.00
2013,11,04,00,56,0.00
2013,11,04,00,57,0.00
2013,11,04,00,58,0.00
2013,11,04,00,59,0.00
2013,11,04,01,00,0.00
2013,11,04,01,01,0.00
2013,11,04,01,02,0.00
2013,11,04,01,03,0.00
2013,11,04,01,04,0.00
2013,11,04,01,05,0.00
2013,11,04,01,06,0.00
2013,11,04,01,07,0.00
2013,11,04,01,08,0.00
2013,11,04,01,09,0.00
2013,11,04,01,10,0.00
2013,11,04,01,11,0.00
2013,11,04,01,12,0.00
2013,11,04,01,13,0.00
2013,11,04,01,14,0.00
2013,11,04,01,15,0.00
2013,11,04,01,16,0.00
2013,11,04,01,17,0.00
2013,11,04,01,18,0.00
2013,11,04,01,19,0.00
2013,11,04,01,20,0.00
2013,11,04,01,21,0.00
2013,11,04,01,22,0.00
2013,11,04,01,23,0.00
2013,11,04,01,24,0.00
2013,11,04,01,25,0.00
2013,11,04,01,26,0.00
2013,11,04,01,27,0.00
2013,11,04,01,28,0.00
2013,11,04,01,29,0.00
2013,11,04,01,30,0.00
2013,11,04,01,31,0.00
2013,11,04,01,32,0.00
2013,11,04,01,33,0.00
2013,11,04,01,34,0.00
2013,11,04,01,35,0.00
2013,11,04,01,36,0.00
2013,11,04,01,37,0.00
2013,11,04,01,38,0.00
2013,11,04,01,39,0.00
2013,11,04,01,40,0.00
2013,11,04,01,41,0.00
2013,11,04,01,42,0.00
2013,11,04,01,43,0.00
2013,11,04,01,44,0.00
2013,11,04,01,45,0.00
2013,11,04,01,46,0.00
2013,11,04,01,47,0.00
2013,11,04,01,48,0.00
2013,11,04,01,49,0.00
2013,11,04,01,50,0.00
2013,11,04,01,51,0.00
2013,11,04,01,52,0.00
2013,11,04,01,53,0.00
2013,11,04,01,54,0.00
2013,11,04,01,55,0.00
2013,11,04,01,56,0.00
2013,11,04,01,57,0.00
2013,11,04,01,58,0.00
2013,11,04,01,59,0.00
2013,11,04,02,00,0.00
2013,11,04,02,01,0.00
2013,11,04,02,02,0.00
2013,11,04,02,03,0.00
2013,11,04,02,04,0.00
2013,11,04,02,05,0.00
2013,11,04,02,06,0.00
2013,11,04,02,07,0.00
2013,11,04,02,08,0.00
2013,11,04,02,09,0.00
2013,11,04,02,10,0.00
2013,11,04,02,11,0.00
2013,11,04,02,12,0.00
2013,11,04,02,13,0.00
2013,11,04,02,14,0.00
2013,11,04,02,15,0.00
2013,11,04,02,16,0.00
2013,11,04,02,17,0.00
2013,11,04,02,18,0.00
2013,11,04,02,19,0.00
2013,11,04,02,20,0.00
2013,11,04,02,21,0.00
2013,11,04,02,22,0.00
2013,11,04,02,23,0.00
2013,11,04,02,24,0.00
2013,11,04,02,25,0.00
2013,11,04,02,26,0.00
2013,11,04,02,27,0.00
2013,11,04,02,28,0.00
2013,11,04,02,29,0.00
2013,11,04,02,30,0.00
2013,11,04,02,31,0.00
2013,11,04,02,32,0.00
2013,11,04,02,33,0.00
2013,11,04,02,34,0.00
2013,11,04,02,35,0.00
2013,11,04,02,36,0.00
2013,11,04,02,37,0.00
2013,11,04,02,38,0.00
2013,11,04,02,39,0.00
2013,11,04,02,40,0.00
2013,11,04,02,41,0.00
2013,11,04,02,42,0.00
2013,11,04,02,43,0.00
2013,11,04,02,44,0.00
2013,11,04,02,45,0.00
2013,11,04,02,46,0.00
2013,11,04,02,47,0.00
2013,11,04,02,48,0.00
2013,11,04,02,49,0.00
2013,11,04,02,50,0.00
2013,11,04,02,51,0.00
2013,11,04,02,52,0.00
2013,11,04,02,53,0.00
2013,11,04,02,54,0.00
2013,11,04,02,55,0.00
2013,11,04,02,56,0.00
2013,11,04,02,57,0.00
2013,11,04,02,58,0.00
2013,11,04,02,59,0.00
2013,11,04,03,00,0.00
2013,11,04,03,01,0.00
2013,11,04,03,02,0.00
2013,11,04,03,03,0.00
2013,11,04,03,04,0.00
2013,11,04,03,05,0.00
2013,11,04,03,06,0.00
2013,11,04,03,07,0.00
2013,11,04,03,08,0.00
2013,11,04,03,09,0.00
2013,11,04,03,10,0.00
2013,11,04,03,11,0.00
2013,11,04,03,12,0.00
2013,11,04,03,13,0.00
2013,11,04,03,14,0.00
2013,11,04,03,15,0.00
2013,11,04,03,16,0.00
2013,11,04,03,17,0.00
2013,11,04,03,18,0.00
2013,11,04,03,19,0.00
2013,11,04,03,20,0.00
2013,11,04,03,21,0.00
2013,11,04,03,22,0.00
2013,11,04,03,23,0.00
2013,11,04,03,24,0.00
2013,11,04,03,25,0.00
2013,11,04,03,26,0.00
2013,11,04,03,27,0.00
2013,11,04,03,28,0.00
2013,11,04,03,29,0.00
2013,11,04,03,30,0.00
2013,11,04,03,31,0.00
2013,11,04,03,32,0.00
2013,11,04,03,33,0.00
2013,11,04,03,34,0.00
2013,11,04,03,35,0.00
2013,11,04,03,36,0.00
2013,11,04,03,37,0.00
2013,11,04,03,38,0.00
2013,11,04,03,39,0.00
2013,11,04,03,40,0.00
2013,11,04,03,41,0.00
2013,11,04,03,42,0.00
2013,11,04,03,43,0.00
2013,11,04,03,44,0.00
2013,11,04,03,45,0.00
2013,11,04,03,46,0.00
2013,11,04,03,47,0.00
2013,11,04,03,48,0.00
2013,11,04,03,49,0.00
2013,11,04,03,50,0.00
2013,11,04,03,51,0.00
2013,11,04,03,52,0.00
2013,11,04,03,53,0.00
2013,11,04,03,54,0.00
2013,11,04,03,55,0.00
2013,11,04,03,56,0.00
2013,11,04,03,57,0.00
2013,11,04,03,58,0.00
2013,11,04,03,59,0.00
2013,11,04,04,00,0.00
2013,11,04,04,01,0.00
2013,11,04,04,02,0.00
2013,11,04,04,03,0.00
2013,11,04,04,04,0.00
2013,11,04,04,05,0.00
2013,11,04,04,06,0.00
2013,11,04,04,07,0.00
2013,11,04,04,08,0.00
2013,11,04,04,09,0.00
2013,11,04,04,10,0.00
2013,11,04,04,11,0.00
2013,11,04,04,12,0.00
2013,11,04,04,13,0.00
2013,11,04,04,14,0.00
2013,11,04,04,15,0.00
2013,11,04,04,16,0.00
2013,11,04,04,17,0.00
2013,11,04,04,18,0.00
2013,11,04,04,19,0.00
2013,11,04,04,20,0.00
2013,11,04,04,21,0.00
2013,11,04,04,22,0.00
2013,11,04,04,23,0.00
2013,11,04,04,24,0.00
2013,11,04,04,25,0.00
2013,11,04,04,26,0.00
2013,11,04,04,27,0.00
2013,11,04,04,28,0.00
2013,11,04,04,29,0.00
2013,11,04,04,30,0.00
2013,11,04,04,31,0.00
2013,11,04,04,32,0.00
2013,11,04,04,33,0.00
2013,11,04,04,34,0.00
2013,11,04,04,35,0.00
2013,11,04,04,36,0.00
2013,11,04,04,37,0.00
2013,11,04,04,38,0.00
2013,11,04,04,39,0.00
2013,11,04,04,40,0.00
2013,11,04,04,41,0.00
2013,11,04,04,42,0.00
2013,11,04,04,43,0.00
2013,11,04,04,44,0.00
2013,11,04,04,45,0.00
2013,11,04,04,46,0.00
2013,11,04,04,47,0.00
2013,11,04,04,48,0.00
2013,11,04,04,49,0.00
2013,11,04,04,50,0.00
2013,11,04,04,51,0.00
2013,11,04,04,52,0.00
2013,11,04,04,53,0.00
2013,11,04,04,54,0.00
2013,11,04,04,55,0.00
2013,11,04,04,56,0.00
2013,11,04,04,57,0.00
2013,11,04,04,58,0.00
2013,11,04,04,59,0.00
2013,11,04,05,00,0.00
2013,11,04,05,01,0.00
2013,11,04,05,02,0.00
2013,11,04,05,03,0.00
2013,11,04,05,04,0.00
2013,11,04,05,05,0.00
2013,11,04,05,06,0.00
2013,11,04,05,07,0.00
2013,11,04,05,08,0.00
2013,11,04,05,09,0.00
2013,11,04,05,10,0.00
2013,11,04,05,11,0.00
2013,11,04,05,12,0.00
2013,11,04,05,13,0.00
2013,11,04,05,14,0.00
2013,11,04,05,15,0.00
2013,11,04,05,16,0.00
2013,11,04,05,17,0.00
2013,11,04,05,18,0.00
2013,11,04,05,19,0.00
2013,11,04,05,20,0.00
2013,11,04,05,21,0.00
2013,11,04,05,22,0.00
2013,11,04,05,23,0.00
2013,11,04,05,24,0.00
2013,11,04,05,25,0.00
2013,11,04,05,26,0.00
2013,11,04,05,27,0.00
2013,11,04,05,28,0.00
2013,11,04,05,29,0.00
2013,11,04,05,30,0.00
2013,11,04,05,31,0.00
2013,11,04,05,32,0.00
2013,11,04,05,33,0.00
2013,11,04,05,34,0.00
2013,11,04,05,35,0.00
2013,11,04,05,36,0.00
2013,11,04,05,37,0.00
2013,11,04,05,38,0.00
2013,11,04,05,39,0.00
2013,11,04,05,40,0.00
2013,11,04,05,41,0.00
2013,11,04,05,42,0.00
2013,11,04,05,43,0.00
2013,11,04,05,44,0.00
2013,11,04,05,45,0.00
2013,11,04,05,46,0.00
2013,11,04,05,47,0.00
2013,11,04,05,48,0.00
2013,11,04,05,49,0.00
2013,11,04,05,50,0.00
2013,11,04,05,51,0.00
2013,11,04,05,52,0.00
2013,11,04,05,53,0.00
2013,11,04,05,54,0.00
2013,11,04,05,55,0.00
2013,11,04,05,56,0.00
2013,11,04,05,57,0.00
2013,11,04,05,58,0.00
2013,11,04,05,59,0.00
2013,11,04,06,00,0.00
2013,11,04,06,01,0.00
2013,11,04,06,02,0.00
2013,11,04,06,03,0.00
2013,11,04,06,04,0.00
2013,11,04,06,05,0.00
2013,11,04,06,06,0.00
2013,11,04,06,07,0.00
2013,11,04,06,08,0.00
2013,11,04,06,09,0.00
2013,11,04,06,10,0.00
2013,11,04,06,11,0.00
2013,11,04,06,12,0.00
2013,11,04,06,13,0.00
2013,11,04,06,14,0.00
2013,11,04,06,15,0.00
2013,11,04,06,16,0.00
2013,11,04,06,17,0.00
2013,11,04,06,18,0.00
2013,11,04,06,19,0.00
2013,11,04,06,20,0.00
2013,11,04,06,21,0.00
2013,11,04,06,22,0.00
2013,11,04,06,23,0.00
2013,11,04,06,24,0.00
2013,11,04,06,25,0.00
2013,11,04,06,26,0.00
2013,11,04,06,27,0.00
2013,11,04,06,28,0.00
2013,11,04,06,29,0.00
2013,11,04,06,30,0.00
2013,11,04,06,31,0.00
2013,11,04,06,32,0.00
2013,11,04,06,33,0.00
2013,11,04,06,34,0.00
2013,11,04,06,35,0.00
2013,11,04,06,36,0.00
2013,11,04,06,37,0.00
2013,11,04,06,38,0.00
2013,11,04,06,39,0.00
2013,11,04,06,40,0.00
2013,11,04,06,41,0.00
2013,11,04,06,42,0.00
2013,11,04,06,43,0.00
2013,11,04,06,44,0.00
2013,11,04,06,45,0.00
2013,11,04,06,46,0.00
2013,11,04,06,47,0.00
2013,11,04,06,48,0.00
2013,11,04,06,49,0.00
2013,11,04,06,50,0.00
2013,11,04,06,51,0.00
2013,11,04,06,52,0.00
2013,11,04,06,53,0.00
2013,11,04,06,54,0.00
2013,11,04,06,55,0.00
2013,11,04,06,56,0.00
2013,11,04,06,57,0.00
2013,11,04,06,58,0.00
2013,11,04,06,59,0.00
2013,11,04,07,00,0.00
2013,11,04,07,01,0.00
2013,11,04,07,02,0.00
2013,11,04,07,03,0.00
2013,11,04,07,04,0.00
2013,11,04,07,05,0.00
2013,11,04,07,06,0.00
2013,11,04,07,07,0.00
2013,11,04,07,08,0.00
2013,11,04,07,09,0.00
2013,11,04,07,10,0.00
2013,11,04,07,11,0.00
2013,11,04,07,12,0.00
2013,11,04,07,13,0.00
2013,11,04,07,14,0.00
2013,11,04,07,15,0.00
2013,11,04,07,16,0.00
2013,11,04,07,17,0.00
2013,11,04,07,18,0.00
2013,11,04,07,19,0.00
2013,11,04,07,20,0.00
2013,11,04,07,21,0.00
2013,11,04,07,22,0.00
2013,11,04,07,23,0.00
2013,11,04,07,24,3.90
2013,11,04,07,25,5.00
2013,11,04,07,26,5.00
2013,11,04,07,27,8.80
2013,11,04,07,28,11.30
2013,11,04,07,29,14.60
2013,11,04,07,30,18.20
2013,11,04,07,31,19.00
2013,11,04,07,32,19.60
2013,11,04,07,33,21.70
2013,11,04,07,34,24.40
2013,11,04,07,35,28.00
2013,11,04,07,36,33.00
2013,11,04,07,37,35.00
2013,11,04,07,38,35.00
2013,11,04,07,39,33.40
2013,11,04,07,40,33.00
2013,11,04,07,41,32.10
2013,11,04,07,42,32.00
2013,11,04,07,43,32.90
2013,11,04,07,44,31.70
2013,11,04,07,45,29.60
2013,11,04,07,46,27.50
2013,11,04,07,47,26.00
2013,11,04,07,48,26.00
2013,11,04,07,49,26.90
2013,11,04,07,50,28.00
2013,11,04,07,51,28.00
2013,11,04,07,52,30.60
2013,11,04,07,53,35.40
2013,11,04,07,54,39.20
2013,11,04,07,55,41.60
2013,11,04,07,56,48.30
2013,11,04,07,57,55.60
2013,11,04,07,58,60.20
2013,11,04,07,59,60.30
2013,11,04,08,00,49.90
2013,11,04,08,01,46.20
2013,11,04,08,02,48.40
2013,11,04,08,03,51.00
2013,11,04,08,04,50.10
2013,11,04,08,05,47.50
2013,11,04,08,06,44.80
2013,11,04,08,07,38.40
2013,11,04,08,08,33.60
2013,11,04,08,09,38.20
2013,11,04,08,10,47.70
2013,11,04,08,11,61.50
2013,11,04,08,12,48.50
2013,11,04,08,13,32.80
2013,11,04,08,14,29.70
2013,11,04,08,15,28.40
2013,11,04,08,16,30.00
2013,11,04,08,17,30.00
2013,11,04,08,18,29.20
2013,11,04,08,19,27.10
2013,11,04,08,20,26.00
2013,11,04,08,21,26.00
2013,11,04,08,22,26.00
2013,11,04,08,23,27.50
2013,11,04,08,24,64.80
2013,11,04,08,25,105.60
2013,11,04,08,26,112.70
2013,11,04,08,27,97.80
2013,11,04,08,28,130.90
2013,11,04,08,29,140.40
2013,11,04,08,30,149.50
2013,11,04,08,31,152.20
2013,11,04,08,32,125.70
2013,11,04,08,33,80.90
2013,11,04,08,34,80.20
2013,11,04,08,35,85.00
2013,11,04,08,36,80.00
2013,11,04,08,37,69.10
2013,11,04,08,38,62.90
2013,11,04,08,39,57.20
2013,11,04,08,40,54.30
2013,11,04,08,41,54.00
2013,11,04,08,42,59.80
2013,11,04,08,43,62.00
2013,11,04,08,44,61.40
2013,11,04,08,45,58.40
2013,11,04,08,46,59.40
2013,11,04,08,47,56.20
2013,11,04,08,48,51.50
2013,11,04,08,49,49.00
2013,11,04,08,50,51.20
2013,11,04,08,51,56.00
2013,11,04,08,52,62.50
2013,11,04,08,53,67.80
2013,11,04,08,54,72.90
2013,11,04,08,55,75.60
2013,11,04,08,56,82.30
2013,11,04,08,57,83.90
2013,11,04,08,58,88.10
2013,11,04,08,59,91.50
2013,11,04,09,00,103.40
2013,11,04,09,01,117.80
2013,11,04,09,02,124.20
2013,11,04,09,03,144.60
2013,11,04,09,04,151.60
2013,11,04,09,05,124.00
2013,11,04,09,06,121.80
2013,11,04,09,07,113.40
2013,11,04,09,08,101.30
2013,11,04,09,09,103.60
2013,11,04,09,10,135.30
2013,11,04,09,11,139.20
2013,11,04,09,12,141.80
2013,11,04,09,13,148.50
2013,11,04,09,14,153.00
2013,11,04,09,15,151.20
2013,11,04,09,16,141.50
2013,11,04,09,17,129.40
2013,11,04,09,18,118.20
2013,11,04,09,19,117.30
2013,11,04,09,20,118.50
2013,11,04,09,21,114.20
2013,11,04,09,22,111.70
2013,11,04,09,23,117.00
2013,11,04,09,24,122.40
2013,11,04,09,25,123.00
2013,11,04,09,26,126.60
2013,11,04,09,27,129.80
2013,11,04,09,28,139.10
2013,11,04,09,29,141.80
2013,11,04,09,30,146.60
2013,11,04,09,31,149.00
2013,11,04,09,32,149.70
2013,11,04,09,33,151.00
2013,11,04,09,34,152.90
2013,11,04,09,35,153.00
2013,11,04,09,36,149.30
2013,11,04,09,37,148.00
2013,11,04,09,38,143.10
2013,11,04,09,39,135.50
2013,11,04,09,40,128.40
2013,11,04,09,41,121.90
2013,11,04,09,42,120.10
2013,11,04,09,43,121.20
2013,11,04,09,44,124.60
2013,11,04,09,45,121.00
2013,11,04,09,46,120.20
2013,11,04,09,47,120.80
2013,11,04,09,48,122.60
2013,11,04,09,49,110.30
2013,11,04,09,50,101.90
2013,11,04,09,51,98.30
2013,11,04,09,52,93.30
2013,11,04,09,53,84.20
2013,11,04,09,54,78.00
2013,11,04,09,55,77.00
2013,11,04,09,56,80.60
2013,11,04,09,57,83.40
2013,11,04,09,58,93.90
2013,11,04,09,59,112.70
2013,11,04,10,00,130.20
2013,11,04,10,01,139.00
2013,11,04,10,02,137.40
2013,11,04,10,03,127.00
2013,11,04,10,04,108.60
2013,11,04,10,05,99.40
2013,11,04,10,06,95.90
2013,11,04,10,07,92.40
2013,11,04,10,08,95.20
2013,11,04,10,09,97.80
2013,11,04,10,10,102.80
2013,11,04,10,11,117.60
2013,11,04,10,12,143.40
2013,11,04,10,13,158.90
2013,11,04,10,14,168.10
2013,11,04,10,15,173.40
2013,11,04,10,16,171.20
2013,11,04,10,17,171.10
2013,11,04,10,18,166.20
2013,11,04,10,19,164.40
2013,11,04,10,20,172.80
2013,11,04,10,21,174.50
2013,11,04,10,22,167.40
2013,11,04,10,23,162.90
2013,11,04,10,24,162.80
2013,11,04,10,25,180.60
2013,11,04,10,26,191.30
2013,11,04,10,27,198.60
2013,11,04,10,28,203.40
2013,11,04,10,29,280.90
2013,11,04,10,30,226.40
2013,11,04,10,31,148.20
2013,11,04,10,32,158.00
2013,11,04,10,33,162.20
2013,11,04,10,34,137.00
2013,11,04,10,35,138.00
2013,11,04,10,36,137.90
2013,11,04,10,37,141.40
2013,11,04,10,38,153.10
2013,11,04,10,39,161.80
2013,11,04,10,40,164.70
2013,11,04,10,41,177.60
2013,11,04,10,42,217.80
2013,11,04,10,43,184.90
2013,11,04,10,44,185.30
2013,11,04,10,45,200.50
2013,11,04,10,46,199.80
2013,11,04,10,47,180.40
2013,11,04,10,48,167.80
2013,11,04,10,49,150.20
2013,11,04,10,50,165.80
2013,11,04,10,51,205.30
2013,11,04,10,52,207.40
2013,11,04,10,53,205.40
2013,11,04,10,54,164.80
2013,11,04,10,55,141.10
2013,11,04,10,56,139.00
2013,11,04,10,57,140.80
2013,11,04,10,58,139.00
2013,11,04,10,59,138.70
2013,11,04,11,00,136.40
2013,11,04,11,01,134.30
2013,11,04,11,02,138.00
2013,11,04,11,03,153.20
2013,11,04,11,04,159.60
2013,11,04,11,05,141.50
2013,11,04,11,06,132.10
2013,11,04,11,07,128.10
2013,11,04,11,08,122.10
2013,11,04,11,09,109.70
2013,11,04,11,10,99.80
2013,11,04,11,11,91.70
2013,11,04,11,12,84.40
2013,11,04,11,13,77.00
2013,11,04,11,14,76.30
2013,11,04,11,15,69.80
2013,11,04,11,16,68.50
2013,11,04,11,17,67.00
2013,11,04,11,18,68.10
2013,11,04,11,19,72.40
2013,11,04,11,20,77.50
2013,11,04,11,21,82.80
2013,11,04,11,22,90.60
2013,11,04,11,23,99.30
2013,11,04,11,24,105.80
2013,11,04,11,25,112.90
2013,11,04,11,26,115.80
2013,11,04,11,27,114.10
2013,11,04,11,28,113.00
2013,11,04,11,29,112.10
2013,11,04,11,30,106.40
2013,11,04,11,31,104.00
2013,11,04,11,32,102.70
2013,11,04,11,33,99.30
2013,11,04,11,34,98.90
2013,11,04,11,35,102.60
2013,11,04,11,36,108.40
2013,11,04,11,37,115.60
2013,11,04,11,38,122.80
2013,11,04,11,39,123.50
2013,11,04,11,40,121.40
2013,11,04,11,41,122.80
2013,11,04,11,42,120.20
2013,11,04,11,43,122.40
2013,11,04,11,44,109.70
2013,11,04,11,45,103.00
2013,11,04,11,46,111.70
2013,11,04,11,47,130.70
2013,11,04,11,48,153.80
2013,11,04,11,49,185.80
2013,11,04,11,50,211.50
2013,11,04,11,51,225.40
2013,11,04,11,52,233.40
2013,11,04,11,53,236.70
2013,11,04,11,54,237.00
2013,11,04,11,55,223.50
2013,11,04,11,56,196.10
2013,11,04,11,57,164.50
2013,11,04,11,58,155.90
2013,11,04,11,59,137.00
2013,11,04,12,00,137.00
2013,11,04,12,01,144.40
2013,11,04,12,02,171.00
2013,11,04,12,03,166.40
2013,11,04,12,04,129.80
2013,11,04,12,05,131.00
2013,11,04,12,06,139.10
2013,11,04,12,07,136.00
2013,11,04,12,08,139.00
2013,11,04,12,09,154.00
2013,11,04,12,10,174.80
2013,11,04,12,11,165.20
2013,11,04,12,12,190.50
2013,11,04,12,13,223.90
2013,11,04,12,14,198.40
2013,11,04,12,15,178.20
2013,11,04,12,16,176.60
2013,11,04,12,17,164.20
2013,11,04,12,18,151.40
2013,11,04,12,19,150.70
2013,11,04,12,20,152.00
2013,11,04,12,21,145.60
2013,11,04,12,22,134.40
2013,11,04,12,23,130.00
2013,11,04,12,24,122.50
2013,11,04,12,25,128.00
2013,11,04,12,26,140.80
2013,11,04,12,27,150.50
2013,11,04,12,28,148.70
2013,11,04,12,29,140.10
2013,11,04,12,30,134.40
2013,11,04,12,31,131.50
2013,11,04,12,32,131.30
2013,11,04,12,33,136.60
2013,11,04,12,34,142.40
2013,11,04,12,35,145.10
2013,11,04,12,36,144.90
2013,11,04,12,37,139.80
2013,11,04,12,38,139.70
2013,11,04,12,39,144.80
2013,11,04,12,40,148.40
2013,11,04,12,41,154.40
2013,11,04,12,42,159.70
2013,11,04,12,43,165.10
2013,11,04,12,44,167.00
2013,11,04,12,45,167.40
2013,11,04,12,46,169.80
2013,11,04,12,47,172.00
2013,11,04,12,48,172.70
2013,11,04,12,49,175.80
2013,11,04,12,50,178.50
2013,11,04,12,51,180.20
2013,11,04,12,52,181.00
2013,11,04,12,53,181.00
2013,11,04,12,54,181.00
2013,11,04,12,55,179.40
2013,11,04,12,56,176.40
2013,11,04,12,57,172.10
2013,11,04,12,58,171.10
2013,11,04,12,59,172.30
2013,11,04,13,00,174.40
2013,11,04,13,01,176.50
2013,11,04,13,02,177.30
2013,11,04,13,03,174.50
2013,11,04,13,04,171.60
2013,11,04,13,05,169.90
2013,11,04,13,06,170.60
2013,11,04,13,07,175.60
2013,11,04,13,08,181.50
2013,11,04,13,09,189.80
2013,11,04,13,10,194.60
2013,11,04,13,11,190.80
2013,11,04,13,12,186.40
2013,11,04,13,13,178.90
2013,11,04,13,14,177.70
2013,11,04,13,15,176.00
2013,11,04,13,16,174.70
2013,11,04,13,17,169.60
2013,11,04,13,18,163.70
2013,11,04,13,19,156.60
2013,11,04,13,20,155.00
2013,11,04,13,21,155.00
2013,11,04,13,22,155.00
2013,11,04,13,23,152.10
2013,11,04,13,24,148.80
2013,11,04,13,25,142.40
2013,11,04,13,26,139.20
2013,11,04,13,27,140.80
2013,11,04,13,28,141.10
2013,11,04,13,29,142.20
2013,11,04,13,30,145.40
2013,11,04,13,31,151.50
2013,11,04,13,32,150.80
2013,11,04,13,33,147.90
2013,11,04,13,34,155.10
2013,11,04,13,35,167.70
2013,11,04,13,36,188.50
2013,11,04,13,37,215.80
2013,11,04,13,38,208.50
2013,11,04,13,39,208.40
2013,11,04,13,40,189.90
2013,11,04,13,41,183.40
2013,11,04,13,42,164.00
2013,11,04,13,43,148.50
2013,11,04,13,44,143.70
2013,11,04,13,45,141.80
2013,11,04,13,46,141.00
2013,11,04,13,47,142.50
2013,11,04,13,48,148.70
2013,11,04,13,49,153.80
2013,11,04,13,50,154.00
2013,11,04,13,51,151.90
2013,11,04,13,52,148.00
2013,11,04,13,53,142.50
2013,11,04,13,54,136.60
2013,11,04,13,55,131.00
2013,11,04,13,56,125.70
2013,11,04,13,57,120.10
2013,11,04,13,58,115.80
2013,11,04,13,59,112.70
2013,11,04,14,00,110.70
2013,11,04,14,01,109.00
2013,11,04,14,02,109.00
2013,11,04,14,03,109.00
2013,11,04,14,04,109.00
2013,11,04,14,05,108.00
2013,11,04,14,06,107.00
2013,11,04,14,07,107.00
2013,11,04,14,08,107.00
2013,11,04,14,09,108.50
2013,11,04,14,10,109.00
2013,11,04,14,11,109.00
2013,11,04,14,12,107.10
2013,11,04,14,13,103.90
2013,11,04,14,14,102.00
2013,11,04,14,15,102.40
2013,11,04,14,16,104.00
2013,11,04,14,17,104.00
2013,11,04,14,18,102.60
2013,11,04,14,19,99.20
2013,11,04,14,20,98.00
2013,11,04,14,21,97.40
2013,11,04,14,22,97.00
2013,11,04,14,23,95.60
2013,11,04,14,24,95.00
2013,11,04,14,25,93.30
2013,11,04,14,26,91.30
2013,11,04,14,27,90.10
2013,11,04,14,28,89.50
2013,11,04,14,29,80.70
2013,11,04,14,30,78.40
2013,11,04,14,31,75.50
2013,11,04,14,32,72.80
2013,11,04,14,33,69.70
2013,11,04,14,34,68.10
2013,11,04,14,35,66.10
2013,11,04,14,36,65.00
2013,11,04,14,37,65.00
2013,11,04,14,38,63.60
2013,11,04,14,39,63.00
2013,11,04,14,40,63.00
2013,11,04,14,41,63.00
2013,11,04,14,42,64.90
2013,11,04,14,43,67.00
2013,11,04,14,44,67.00
2013,11,04,14,45,67.00
2013,11,04,14,46,67.00
2013,11,04,14,47,67.70
2013,11,04,14,48,69.00
2013,11,04,14,49,69.40
2013,11,04,14,50,70.00
2013,11,04,14,51,71.10
2013,11,04,14,52,72.00
2013,11,04,14,53,73.40
2013,11,04,14,54,74.00
2013,11,04,14,55,74.00
2013,11,04,14,56,74.00
2013,11,04,14,57,74.00
2013,11,04,14,58,72.00
2013,11,04,14,59,72.30
2013,11,04,15,00,74.00
2013,11,04,15,01,73.50
2013,11,04,15,02,72.00
2013,11,04,15,03,71.30
2013,11,04,15,04,70.00
2013,11,04,15,05,69.50
2013,11,04,15,06,69.00
2013,11,04,15,07,69.00
2013,11,04,15,08,69.00
2013,11,04,15,09,69.00
2013,11,04,15,10,67.40
2013,11,04,15,11,67.00
2013,11,04,15,12,67.00
2013,11,04,15,13,66.90
2013,11,04,15,14,65.00
2013,11,04,15,15,64.60
2013,11,04,15,16,62.70
2013,11,04,15,17,61.40
2013,11,04,15,18,59.30
2013,11,04,15,19,58.00
2013,11,04,15,20,57.00
2013,11,04,15,21,56.00
2013,11,04,15,22,56.00
2013,11,04,15,23,56.00
2013,11,04,15,24,57.50
2013,11,04,15,25,59.60
2013,11,04,15,26,61.80
2013,11,04,15,27,62.00
2013,11,04,15,28,63.00
2013,11,04,15,29,63.00
2013,11,04,15,30,63.00
2013,11,04,15,31,63.50
2013,11,04,15,32,65.00
2013,11,04,15,33,65.70
2013,11,04,15,34,67.00
2013,11,04,15,35,68.00
2013,11,04,15,36,69.00
2013,11,04,15,37,69.00
2013,11,04,15,38,69.00
2013,11,04,15,39,67.50
2013,11,04,15,40,63.80
2013,11,04,15,41,62.10
2013,11,04,15,42,58.40
2013,11,04,15,43,53.80
2013,11,04,15,44,48.70
2013,11,04,15,45,45.20
2013,11,04,15,46,41.50
2013,11,04,15,47,39.70
2013,11,04,15,48,38.20
2013,11,04,15,49,36.20
2013,11,04,15,50,34.00
2013,11,04,15,51,31.20
2013,11,04,15,52,28.70
2013,11,04,15,53,28.00
2013,11,04,15,54,26.50
2013,11,04,15,55,26.00
2013,11,04,15,56,25.10
2013,11,04,15,57,25.00
2013,11,04,15,58,24.80
2013,11,04,15,59,22.80
2013,11,04,16,00,21.00
2013,11,04,16,01,21.00
2013,11,04,16,02,20.30
2013,11,04,16,03,19.00
2013,11,04,16,04,19.00
2013,11,04,16,05,18.50
2013,11,04,16,06,18.00
2013,11,04,16,07,18.00
2013,11,04,16,08,18.00
2013,11,04,16,09,18.00
2013,11,04,16,10,18.00
2013,11,04,16,11,18.00
2013,11,04,16,12,16.10
2013,11,04,16,13,15.90
2013,11,04,16,14,14.00
2013,11,04,16,15,13.60
2013,11,04,16,16,12.00
2013,11,04,16,17,12.00
2013,11,04,16,18,11.60
2013,11,04,16,19,11.00
2013,11,04,16,20,11.00
2013,11,04,16,21,9.80
2013,11,04,16,22,9.00
2013,11,04,16,23,9.00
2013,11,04,16,24,9.00
2013,11,04,16,25,9.00
2013,11,04,16,26,9.00
2013,11,04,16,27,9.00
2013,11,04,16,28,7.00
2013,11,04,16,29,7.00
2013,11,04,16,30,7.00
2013,11,04,16,31,6.50
2013,11,04,16,32,5.00
2013,11,04,16,33,5.00
2013,11,04,16,34,5.00
2013,11,04,16,35,2.40
2013,11,04,16,36,0.00
2013,11,04,16,37,0.00
2013,11,04,16,38,0.00
2013,11,04,16,39,0.00
2013,11,04,16,40,0.00
2013,11,04,16,41,0.00
2013,11,04,16,42,0.00
2013,11,04,16,43,0.00
2013,11,04,16,44,0.00
2013,11,04,16,45,0.00
2013,11,04,16,46,0.00
2013,11,04,16,47,0.00
2013,11,04,16,48,0.00
2013,11,04,16,49,0.00
2013,11,04,16,50,0.00
2013,11,04,16,51,0.00
2013,11,04,16,52,0.00
2013,11,04,16,53,0.00
2013,11,04,16,54,0.00
2013,11,04,16,55,0.00
2013,11,04,16,56,0.00
2013,11,04,16,57,0.00
2013,11,04,16,58,0.00
2013,11,04,16,59,0.00
2013,11,04,17,00,0.00
2013,11,04,17,01,0.00
2013,11,04,17,02,0.00
2013,11,04,17,03,0.00
2013,11,04,17,04,0.00
2013,11,04,17,05,0.00
2013,11,04,17,06,0.00
2013,11,04,17,07,0.00
2013,11,04,17,08,0.00
2013,11,04,17,09,0.00
2013,11,04,17,10,0.00
2013,11,04,17,11,0.00
2013,11,04,17,12,0.00
2013,11,04,17,13,0.00
2013,11,04,17,14,0.00
2013,11,04,17,15,0.00
2013,11,04,17,16,0.00
2013,11,04,17,17,0.00
2013,11,04,17,18,0.00
2013,11,04,17,19,0.00
2013,11,04,17,20,0.00
2013,11,04,17,21,0.00
2013,11,04,17,22,0.00
2013,11,04,17,23,0.00
2013,11,04,17,24,0.00
2013,11,04,17,25,0.00
2013,11,04,17,26,0.00
2013,11,04,17,27,0.00
2013,11,04,17,28,0.00